When you browse on this site, cookies collect data to enhance your experience and personalize the content and advertising you see.
Visit our Privacy Policy to learn more. By continuing to use the site, you agree to this use of cookies and data.
  • în România
  • Lista ţărilor
  • Pe 7 zile
  • Temperatura apei
  • Hartă satelitară
  • Meteo pe hartă
  • Widget-uri
  • user-avatar
    Intrare

    Meteo pe oră la Achstetten

    Astăzi, 25 Aprilie, Joi

    Timp Temperatura Precipitaţii Vânt Presiune Umiditate
    00:00 +6°C° 0 mm 2 m/s 712 mmHg 83%
    01:00 +6°C° 0 mm 2 m/s 712 mmHg 78%
    02:00 +5°C° 0 mm 3 m/s 712 mmHg 80%
    03:00 +5°C° 0 mm 3 m/s 712 mmHg 82%
    04:00 +5°C° 0 mm 3 m/s 712 mmHg 84%
    05:00 +7°C° 0 mm 3 m/s 712 mmHg 82%
    06:00 +7°C° 0 mm 4 m/s 712 mmHg 80%
    07:00 +10°C° 0 mm 4 m/s 712 mmHg 74%
    08:00 +12°C° 0 mm 4 m/s 712 mmHg 71%
    09:00 +14°C° 0 mm 3 m/s 712 mmHg 67%
    10:00 +17°C° 0 mm 3 m/s 712 mmHg 63%
    11:00 +19°C° 0 mm 3 m/s 712 mmHg 59%
    12:00 +20°C° 0 mm 4 m/s 712 mmHg 54%
    13:00 +22°C° 0 mm 4 m/s 711 mmHg 50%
    14:00 +22°C° 0 mm 4 m/s 711 mmHg 51%
    15:00 +24°C° 0 mm 3 m/s 711 mmHg 51%
    16:00 +24°C° 0 mm 3 m/s 711 mmHg 52%
    17:00 +21°C° 0 mm 3 m/s 710 mmHg 56%
    18:00 +18°C° 0 mm 3 m/s 710 mmHg 60%
    19:00 +16°C° 0 mm 3 m/s 710 mmHg 65%
    20:00 +15°C° 0 mm 2 m/s 710 mmHg 67%
    21:00 +13°C° 0 mm 2 m/s 710 mmHg 69%
    22:00 +12°C° 0 mm 2 m/s 711 mmHg 70%
    23:00 +10°C° 0 mm 2 m/s 711 mmHg 78%

    Mâine, 26 Aprilie, Vineri

    Timp Temperatura Precipitaţii Vânt Presiune Umiditate
    00:00 +9°C° 0 mm 2 m/s 711 mmHg 86%
    01:00 +8°C° 0 mm 3 m/s 711 mmHg 94%
    02:00 +7°C° 0 mm 2 m/s 711 mmHg 95%
    03:00 +7°C° 0 mm 2 m/s 711 mmHg 96%
    04:00 +6°C° 0 mm 2 m/s 711 mmHg 97%
    05:00 +7°C° 0 mm 2 m/s 711 mmHg 95%
    06:00 +8°C° 0 mm 3 m/s 711 mmHg 93%
    07:00 +8°C° 0 mm 3 m/s 712 mmHg 91%
    08:00 +7°C° 0.2 mm 4 m/s 712 mmHg 91%
    09:00 +7°C° 0.2 mm 5 m/s 712 mmHg 91%
    10:00 +7°C° 0.2 mm 5 m/s 713 mmHg 91%
    11:00 +5°C° 1.8 mm 6 m/s 714 mmHg 91%
    12:00 +5°C° 1.8 mm 6 m/s 714 mmHg 91%
    13:00 +5°C° 1.8 mm 6 m/s 715 mmHg 90%
    14:00 +5°C° 0.4 mm 6 m/s 716 mmHg 87%
    15:00 +7°C° 0.4 mm 5 m/s 717 mmHg 85%
    16:00 +8°C° 0.4 mm 5 m/s 717 mmHg 82%
    17:00 +7°C° 0 mm 4 m/s 717 mmHg 84%
    18:00 +7°C° 0 mm 4 m/s 717 mmHg 86%
    19:00 +6°C° 0 mm 4 m/s 718 mmHg 89%
    20:00 +6°C° 0 mm 4 m/s 718 mmHg 89%
    21:00 +5°C° 0 mm 4 m/s 718 mmHg 90%
    22:00 +4°C° 0 mm 4 m/s 718 mmHg 91%
    23:00 +4°C° 0 mm 3 m/s 718 mmHg 90%

    Poimâine, 27 Aprilie, Sâmbătă

    Timp Temperatura Precipitaţii Vânt Presiune Umiditate
    00:00 +4°C° 0 mm 3 m/s 718 mmHg 89%
    01:00 +4°C° 0 mm 3 m/s 718 mmHg 88%
    02:00 +3°C° 0 mm 3 m/s 718 mmHg 87%
    03:00 +3°C° 0 mm 4 m/s 718 mmHg 87%
    04:00 +1°C° 0 mm 4 m/s 718 mmHg 86%
    05:00 +3°C° 0 mm 4 m/s 718 mmHg 82%
    06:00 +3°C° 0 mm 5 m/s 718 mmHg 78%
    07:00 +5°C° 0 mm 5 m/s 718 mmHg 75%
    08:00 +5°C° 0 mm 6 m/s 718 mmHg 73%
    09:00 +8°C° 0 mm 7 m/s 718 mmHg 71%
    10:00 +10°C° 0 mm 7 m/s 718 mmHg 69%
    11:00 +10°C° 0.1 mm 7 m/s 717 mmHg 68%
    12:00 +11°C° 0.1 mm 7 m/s 717 mmHg 66%
    13:00 +11°C° 0.1 mm 7 m/s 717 mmHg 65%
    14:00 +10°C° 0.4 mm 7 m/s 717 mmHg 69%
    15:00 +10°C° 0.4 mm 7 m/s 717 mmHg 74%
    16:00 +9°C° 0.4 mm 7 m/s 716 mmHg 78%
    17:00 +8°C° 0.6 mm 6 m/s 717 mmHg 82%
    18:00 +7°C° 0.6 mm 5 m/s 717 mmHg 86%
    19:00 +6°C° 0.6 mm 4 m/s 717 mmHg 89%
    20:00 +5°C° 0 mm 4 m/s 717 mmHg 91%
    21:00 +3°C° 0 mm 4 m/s 718 mmHg 92%
    22:00 +1°C° 0 mm 4 m/s 718 mmHg 94%
    23:00 +1°C° 0 mm 4 m/s 719 mmHg 94%

    28 Aprilie, Duminică

    Timp Temperatura Precipitaţii Vânt Presiune Umiditate
    00:00 +2°C° 0 mm 3 m/s 719 mmHg 95%
    01:00 +1°C° 0 mm 3 m/s 719 mmHg 95%
    02:00 +1°C° 0.2 mm 3 m/s 719 mmHg 95%
    03:00 +2°C° 0.2 mm 3 m/s 719 mmHg 95%
    04:00 +2°C° 0.2 mm 3 m/s 719 mmHg 95%
    05:00 +1°C° 0 mm 4 m/s 719 mmHg 93%
    06:00 +3°C° 0 mm 4 m/s 718 mmHg 92%
    07:00 +3°C° 0 mm 4 m/s 718 mmHg 90%
    08:00 +4°C° 0.2 mm 4 m/s 718 mmHg 84%
    09:00 +5°C° 0.2 mm 5 m/s 718 mmHg 77%
    10:00 +6°C° 0.2 mm 5 m/s 718 mmHg 70%
    11:00 +7°C° 0.4 mm 4 m/s 718 mmHg 68%
    12:00 +8°C° 0.4 mm 4 m/s 718 mmHg 66%
    13:00 +9°C° 0.4 mm 3 m/s 718 mmHg 64%
    14:00 +9°C° 0.6 mm 3 m/s 718 mmHg 66%
    15:00 +9°C° 0.6 mm 3 m/s 717 mmHg 68%
    16:00 +9°C° 0.6 mm 2 m/s 717 mmHg 70%
    17:00 +8°C° 0.5 mm 2 m/s 717 mmHg 75%
    18:00 +7°C° 0.5 mm 2 m/s 718 mmHg 81%
    19:00 +6°C° 0.5 mm 2 m/s 718 mmHg 86%
    20:00 +5°C° 0.1 mm 2 m/s 718 mmHg 88%
    21:00 +4°C° 0.1 mm 2 m/s 718 mmHg 90%
    22:00 +3°C° 0.1 mm 2 m/s 719 mmHg 91%
    23:00 +3°C° 0 mm 2 m/s 719 mmHg 92%

    29 Aprilie, Luni

    Timp Temperatura Precipitaţii Vânt Presiune Umiditate
    00:00 +3°C° 0 mm 2 m/s 719 mmHg 92%
    01:00 +4°C° 0 mm 1 m/s 719 mmHg 92%
    02:00 +4°C° 0 mm 1 m/s 719 mmHg 93%
    03:00 +4°C° 0 mm 1 m/s 719 mmHg 93%
    04:00 +4°C° 0 mm 1 m/s 719 mmHg 93%
    05:00 +4°C° 0 mm 1 m/s 719 mmHg 91%
    06:00 +5°C° 0 mm 1 m/s 719 mmHg 90%
    07:00 +6°C° 0 mm 1 m/s 719 mmHg 89%
    08:00 +7°C° 0 mm 1 m/s 719 mmHg 84%
    09:00 +8°C° 0 mm 1 m/s 719 mmHg 79%
    10:00 +9°C° 0 mm 2 m/s 719 mmHg 75%
    11:00 +10°C° 0.1 mm 2 m/s 719 mmHg 72%
    12:00 +12°C° 0.1 mm 2 m/s 719 mmHg 68%
    13:00 +12°C° 0.1 mm 3 m/s 718 mmHg 65%
    14:00 +12°C° 0.2 mm 3 m/s 718 mmHg 66%
    15:00 +12°C° 0.2 mm 3 m/s 718 mmHg 66%
    16:00 +12°C° 0.2 mm 3 m/s 718 mmHg 66%
    17:00 +11°C° 0.1 mm 3 m/s 718 mmHg 71%
    18:00 +10°C° 0.1 mm 2 m/s 718 mmHg 76%
    19:00 +9°C° 0.1 mm 2 m/s 717 mmHg 80%
    20:00 +8°C° 0 mm 2 m/s 718 mmHg 82%
    21:00 +8°C° 0 mm 1 m/s 718 mmHg 83%
    22:00 +7°C° 0 mm 1 m/s 718 mmHg 85%
    23:00 +6°C° 0 mm 1 m/s 718 mmHg 86%

    30 Aprilie, Marţi

    Timp Temperatura Precipitaţii Vânt Presiune Umiditate
    00:00 +6°C° 0 mm 1 m/s 718 mmHg 88%
    01:00 +5°C° 0 mm 1 m/s 717 mmHg 89%
    02:00 +5°C° 0 mm 1 m/s 717 mmHg 90%
    03:00 +5°C° 0 mm 1 m/s 717 mmHg 90%
    04:00 +4°C° 0 mm 1 m/s 717 mmHg 91%
    05:00 +5°C° 0 mm 1 m/s 717 mmHg 90%
    06:00 +6°C° 0 mm 1 m/s 717 mmHg 89%
    07:00 +7°C° 0 mm 1 m/s 716 mmHg 88%
    08:00 +9°C° 0.1 mm 1 m/s 716 mmHg 86%
    09:00 +10°C° 0.1 mm 1 m/s 716 mmHg 84%
    10:00 +10°C° 0.1 mm 2 m/s 716 mmHg 82%
    11:00 +10°C° 0.2 mm 2 m/s 716 mmHg 82%
    12:00 +10°C° 0.2 mm 2 m/s 715 mmHg 83%
    13:00 +11°C° 0.2 mm 3 m/s 715 mmHg 83%
    14:00 +11°C° 0.4 mm 3 m/s 715 mmHg 85%
    15:00 +10°C° 0.4 mm 3 m/s 715 mmHg 87%
    16:00 +10°C° 0.4 mm 3 m/s 714 mmHg 89%
    17:00 +10°C° 0.3 mm 2 m/s 714 mmHg 91%
    18:00 +9°C° 0.3 mm 2 m/s 714 mmHg 93%
    19:00 +10°C° 0.3 mm 1 m/s 714 mmHg 95%
    20:00 +8°C° 0 mm 2 m/s 715 mmHg 94%
    21:00 +8°C° 0 mm 2 m/s 715 mmHg 94%
    22:00 +7°C° 0 mm 2 m/s 715 mmHg 94%
    23:00 +6°C° 0 mm 2 m/s 715 mmHg 94%
    Arată mai mult